| time (UTC) | temp F | wind direction | speed MPH | gust MPH | rain 1hr in | rain 24hr in | rain mn in | humidity % | barometer mb |
| 20260901163324 | 96 | 194 | 0.0 | 4.0 | 0.00 | 0.00 | 0.00 | 48 | 1018.8 |
| 20260901162819 | 95 | 217 | 0.0 | 3.0 | 0.00 | 0.00 | 0.00 | 49 | 1018.8 |
| 20260901162318 | 94 | 216 | 1.0 | 5.0 | 0.00 | 0.00 | 0.00 | 51 | 1018.9 |
| 20260901161833 | 93 | 215 | 3.0 | 5.0 | 0.00 | 0.00 | 0.00 | 50 | 1018.9 |
| 20260901161327 | 93 | 207 | 1.0 | 6.0 | 0.00 | 0.00 | 0.00 | 51 | 1018.9 |
| 20260901160822 | 93 | 212 | 2.0 | 6.0 | 0.00 | 0.00 | 0.00 | 51 | 1019.0 |
| 20260901160317 | 93 | 228 | 1.0 | 6.0 | 0.00 | 0.00 | 0.00 | 52 | 1019.0 |
| 20260901155832 | 93 | 219 | 0.0 | 1.0 | 0.00 | 0.00 | 0.00 | 53 | 1019.1 |
| 20260901155327 | 92 | 185 | 0.0 | 0.0 | 0.00 | 0.00 | 0.00 | 53 | 1019.1 |
| 20260901154825 | 92 | 217 | 0.0 | 7.0 | 0.00 | 0.00 | 0.00 | 53 | 1019.1 |
| 20260901154319 | 91 | 191 | 3.0 | 9.0 | 0.00 | 0.00 | 0.00 | 52 | 1019.1 |
| 20260901153329 | 92 | 247 | 1.0 | 6.0 | 0.00 | 0.00 | 0.00 | 52 | 1018.9 |
| 20260901152823 | 91 | 142 | 4.0 | 8.0 | 0.00 | 0.00 | 0.00 | 53 | 1018.9 |
| 20260901152336 | 91 | 169 | 5.0 | 8.0 | 0.00 | 0.00 | 0.00 | 53 | 1018.8 |
| 20260901151830 | 91 | 239 | 4.0 | 7.0 | 0.00 | 0.00 | 0.00 | 52 | 1018.9 |
| 20260901151346 | 91 | 208 | 3.0 | 7.0 | 0.00 | 0.00 | 0.00 | 54 | 1018.9 |
| 20260901150817 | 91 | 217 | 4.0 | 7.0 | 0.00 | 0.00 | 0.00 | 53 | 1018.8 |
| 20260901150352 | 91 | 210 | 1.0 | 7.0 | 0.00 | 0.00 | 0.00 | 54 | 1018.8 |
| 20260901145830 | 91 | 212 | 4.0 | 7.0 | 0.00 | 0.00 | 0.00 | 54 | 1018.8 |
| 20260901145324 | 90 | 191 | 3.0 | 6.0 | 0.00 | 0.00 | 0.00 | 55 | 1018.8 |
| 20260901144818 | 90 | 184 | 2.0 | 5.0 | 0.00 | 0.00 | 0.00 | 56 | 1018.7 |
| 20260901144333 | 89 | 229 | 1.0 | 5.0 | 0.00 | 0.00 | 0.00 | 56 | 1018.8 |
| 20260901143829 | 89 | 211 | 2.0 | 5.0 | 0.00 | 0.00 | 0.00 | 56 | 1018.9 |
| 20260901143343 | 88 | 194 | 2.0 | 5.0 | 0.00 | 0.00 | 0.00 | 57 | 1018.9 |
| 20260901142817 | 88 | 203 | 3.0 | 5.0 | 0.00 | 0.00 | 0.00 | 57 | 1019.0 |
| 20260901142332 | 88 | 214 | 3.0 | 5.0 | 0.00 | 0.00 | 0.00 | 56 | 1018.9 |
| 20260901141831 | 88 | 146 | 1.0 | 7.0 | 0.00 | 0.00 | 0.00 | 58 | 1019.0 |
| 20260901141326 | 87 | 129 | 0.0 | 7.0 | 0.00 | 0.00 | 0.00 | 58 | 1019.0 |
| 20260901140820 | 87 | 204 | 3.0 | 5.0 | 0.00 | 0.00 | 0.00 | 58 | 1019.0 |
| 20260901140335 | 87 | 203 | 1.0 | 4.0 | 0.00 | 0.00 | 0.00 | 58 | 1019.0 |
| 20260901135829 | 86 | 216 | 1.0 | 4.0 | 0.00 | 0.00 | 0.00 | 58 | 1019.1 |
| 20260901135323 | 86 | 200 | 0.0 | 5.0 | 0.00 | 0.00 | 0.00 | 59 | 1019.1 |
| 20260901134818 | 86 | 143 | 3.0 | 5.0 | 0.00 | 0.00 | 0.00 | 59 | 1019.1 |
| 20260901134337 | 86 | 220 | 0.0 | 3.0 | 0.00 | 0.00 | 0.00 | 59 | 1019.1 |
| 20260901133831 | 85 | 217 | 0.0 | 5.0 | 0.00 | 0.00 | 0.00 | 60 | 1019.1 |
| 20260901133325 | 84 | 209 | 2.0 | 6.0 | 0.00 | 0.00 | 0.00 | 60 | 1019.1 |
| 20260901132840 | 84 | 200 | 0.0 | 6.0 | 0.00 | 0.00 | 0.00 | 61 | 1019.0 |
| 20260901132334 | 84 | 221 | 1.0 | 5.0 | 0.00 | 0.00 | 0.00 | 61 | 1019.0 |
| 20260901131826 | 84 | 227 | 0.0 | 3.0 | 0.00 | 0.00 | 0.00 | 61 | 1018.9 |
| 20260901131340 | 85 | 217 | 1.0 | 2.0 | 0.00 | 0.00 | 0.00 | 60 | 1018.8 |
| 20260901130831 | 84 | 221 | 0.0 | 3.0 | 0.00 | 0.00 | 0.00 | 61 | 1018.8 |
| 20260901130344 | 83 | 214 | 0.0 | 3.0 | 0.00 | 0.00 | 0.00 | 61 | 1018.7 |
| 20260901125817 | 83 | 207 | 0.0 | 4.0 | 0.00 | 0.00 | 0.00 | 63 | 1018.7 |
| 20260901125332 | 82 | 219 | 1.0 | 4.0 | 0.00 | 0.00 | 0.00 | 63 | 1018.7 |
| 20260901124831 | 82 | 214 | 1.0 | 4.0 | 0.00 | 0.00 | 0.00 | 63 | 1018.7 |
| 20260901124344 | 81 | 221 | 1.0 | 4.0 | 0.00 | 0.00 | 0.00 | 64 | 1018.6 |
| 20260901123838 | 81 | 220 | 1.0 | 3.0 | 0.00 | 0.00 | 0.00 | 64 | 1018.6 |
| 20260901123332 | 81 | 212 | 1.0 | 3.0 | 0.00 | 0.00 | 0.00 | 65 | 1018.5 |
| 20260901122827 | 80 | 211 | 0.0 | 2.0 | 0.00 | 0.00 | 0.00 | 66 | 1018.4 |
| 20260901122322 | 80 | 213 | 0.0 | 1.0 | 0.00 | 0.00 | 0.00 | 66 | 1018.4 |
| 20260901121836 | 80 | 214 | 0.0 | 1.0 | 0.00 | 0.00 | 0.00 | 66 | 1018.3 |
| 20260901121350 | 79 | 210 | 0.0 | 3.0 | 0.00 | 0.00 | 0.00 | 67 | 1018.3 |
| 20260901120824 | 79 | 162 | 1.0 | 5.0 | 0.00 | 0.00 | 0.00 | 67 | 1018.3 |
| 20260901120338 | 78 | 216 | 1.0 | 5.0 | 0.00 | 0.00 | 0.00 | 68 | 1018.2 |
| 20260901115836 | 78 | 208 | 0.0 | 3.0 | 0.00 | 0.00 | 0.00 | 68 | 1018.1 |
| 20260901115330 | 78 | 219 | 1.0 | 3.0 | 0.00 | 0.00 | 0.00 | 68 | 1018.0 |
| 20260901114843 | 78 | 217 | 1.0 | 2.0 | 0.00 | 0.00 | 0.00 | 69 | 1018.0 |
| 20260901114317 | 78 | 221 | 0.0 | 4.0 | 0.00 | 0.00 | 0.00 | 69 | 1018.0 |
| 20260901113851 | 78 | 207 | 1.0 | 4.0 | 0.00 | 0.00 | 0.00 | 69 | 1017.8 |
| 20260901113325 | 78 | 176 | 0.0 | 2.0 | 0.00 | 0.00 | 0.00 | 70 | 1017.8 |
| 20260901112819 | 77 | 202 | 0.0 | 3.0 | 0.00 | 0.00 | 0.00 | 70 | 1017.8 |
| 20260901112353 | 77 | 217 | 1.0 | 3.0 | 0.00 | 0.00 | 0.00 | 70 | 1017.7 |
| 20260901111846 | 77 | 214 | 0.0 | 3.0 | 0.00 | 0.00 | 0.00 | 71 | 1017.7 |
| 20260901111321 | 77 | 119 | 0.0 | 2.0 | 0.00 | 0.00 | 0.00 | 72 | 1017.7 |
| 20260901110819 | 77 | 196 | 0.0 | 1.0 | 0.00 | 0.00 | 0.00 | 71 | 1017.6 |
| 20260901110332 | 77 | 217 | 0.0 | 2.0 | 0.00 | 0.00 | 0.00 | 71 | 1017.7 |
| 20260901105827 | 77 | 161 | 0.0 | 3.0 | 0.00 | 0.00 | 0.00 | 71 | 1017.6 |
| 20260901105322 | 77 | 219 | 2.0 | 3.0 | 0.00 | 0.00 | 0.00 | 71 | 1017.5 |
| 20260901104856 | 77 | 205 | 0.0 | 3.0 | 0.00 | 0.00 | 0.00 | 71 | 1017.5 |
| 20260901104330 | 77 | 212 | 0.0 | 3.0 | 0.00 | 0.00 | 0.00 | 71 | 1017.5 |
| 20260901103825 | 77 | 214 | 0.0 | 3.0 | 0.00 | 0.00 | 0.00 | 71 | 1017.4 |
| 20260901103320 | 77 | 214 | 0.0 | 1.0 | 0.00 | 0.00 | 0.00 | 71 | 1017.5 |
| 20260901102839 | 77 | 165 | 0.0 | 4.0 | 0.00 | 0.00 | 0.00 | 71 | 1017.4 |
| 20260901102353 | 77 | 171 | 0.0 | 4.0 | 0.00 | 0.00 | 0.00 | 70 | 1017.4 |
| 20260901101827 | 77 | 212 | 0.0 | 3.0 | 0.00 | 0.00 | 0.00 | 70 | 1017.4 |
| 20260901101321 | 77 | 200 | 1.0 | 3.0 | 0.00 | 0.00 | 0.00 | 70 | 1017.4 |
| 20260901100857 | 77 | 153 | 0.0 | 3.0 | 0.00 | 0.00 | 0.00 | 70 | 1017.4 |
| 20260901100330 | 77 | 189 | 1.0 | 3.0 | 0.00 | 0.00 | 0.00 | 70 | 1017.4 |
| 20260901095824 | 77 | 153 | 0.0 | 3.0 | 0.00 | 0.00 | 0.00 | 70 | 1017.3 |
| 20260901095317 | 77 | 160 | 1.0 | 2.0 | 0.00 | 0.00 | 0.00 | 70 | 1017.3 |
| 20260901094832 | 77 | 163 | 0.0 | 3.0 | 0.00 | 0.00 | 0.00 | 70 | 1017.3 |
| 20260901094330 | 77 | 174 | 0.0 | 3.0 | 0.00 | 0.00 | 0.00 | 69 | 1017.3 |
| 20260901093824 | 77 | 159 | 0.0 | 2.0 | 0.00 | 0.00 | 0.00 | 69 | 1017.3 |
| 20260901093319 | 77 | 176 | 0.0 | 4.0 | 0.00 | 0.00 | 0.00 | 69 | 1017.3 |
| 20260901092833 | 78 | 170 | 0.0 | 4.0 | 0.00 | 0.00 | 0.00 | 69 | 1017.3 |
| 20260901092326 | 78 | 193 | 0.0 | 4.0 | 0.00 | 0.00 | 0.00 | 69 | 1017.2 |
| 20260901091821 | 77 | 145 | 1.0 | 4.0 | 0.00 | 0.00 | 0.00 | 69 | 1017.1 |
| 20260901091336 | 77 | 169 | 0.0 | 3.0 | 0.00 | 0.00 | 0.00 | 69 | 1017.1 |
| 20260901090829 | 78 | 158 | 1.0 | 3.0 | 0.00 | 0.00 | 0.00 | 69 | 1017.1 |
| 20260901090325 | 78 | 173 | 0.0 | 2.0 | 0.00 | 0.00 | 0.00 | 68 | 1017.1 |
| 20260901085843 | 78 | 145 | 0.0 | 2.0 | 0.00 | 0.00 | 0.00 | 68 | 1017.1 |
| 20260901085356 | 78 | 161 | 0.0 | 3.0 | 0.00 | 0.00 | 0.00 | 68 | 1017.1 |
| 20260901084829 | 78 | 118 | 1.0 | 3.0 | 0.00 | 0.00 | 0.00 | 68 | 1017.1 |
| 20260901084324 | 78 | 163 | 0.0 | 3.0 | 0.00 | 0.00 | 0.00 | 68 | 1017.1 |
| 20260901083819 | 77 | 75 | 1.0 | 3.0 | 0.00 | 0.00 | 0.00 | 68 | 1017.1 |
| 20260901083334 | 77 | 198 | 0.0 | 0.0 | 0.00 | 0.00 | 0.00 | 68 | 1017.1 |
| 20260901082829 | 78 | 162 | 0.0 | 2.0 | 0.00 | 0.00 | 0.00 | 67 | 1017.1 |
| 20260901082344 | 78 | 182 | 0.0 | 3.0 | 0.00 | 0.00 | 0.00 | 67 | 1017.0 |
| 20260901081817 | 78 | 162 | 0.0 | 3.0 | 0.00 | 0.00 | 0.00 | 67 | 1017.1 |
| 20260901081317 | 78 | 161 | 0.0 | 4.0 | 0.00 | 0.00 | 0.00 | 67 | 1017.0 |
| 20260901080831 | 78 | 128 | 0.0 | 4.0 | 0.00 | 0.00 | 0.00 | 66 | 1017.0 |
| 20260901080346 | 78 | 167 | 0.0 | 2.0 | 0.00 | 0.00 | 0.00 | 66 | 1017.0 |
| 20260901075820 | 78 | 192 | 0.0 | 3.0 | 0.00 | 0.00 | 0.00 | 66 | 1016.9 |
| 20260901075334 | 78 | 161 | 1.0 | 4.0 | 0.00 | 0.00 | 0.00 | 66 | 1016.9 |
| 20260901074829 | 78 | 160 | 0.0 | 2.0 | 0.00 | 0.00 | 0.00 | 66 | 1016.9 |
| 20260901074324 | 79 | 191 | 0.0 | 2.0 | 0.00 | 0.00 | 0.00 | 65 | 1017.0 |
| 20260901073818 | 79 | 176 | 0.0 | 2.0 | 0.00 | 0.00 | 0.00 | 65 | 1017.0 |
| 20260901073336 | 79 | 165 | 0.0 | 2.0 | 0.00 | 0.00 | 0.00 | 64 | 1017.0 |
| 20260901072830 | 79 | 159 | 0.0 | 2.0 | 0.00 | 0.00 | 0.00 | 64 | 1017.1 |
| 20260901072326 | 79 | 168 | 0.0 | 3.0 | 0.00 | 0.00 | 0.00 | 64 | 1017.1 |
| 20260901071819 | 79 | 192 | 0.0 | 3.0 | 0.00 | 0.00 | 0.00 | 64 | 1017.1 |
| 20260901071334 | 79 | 187 | 1.0 | 2.0 | 0.00 | 0.00 | 0.00 | 63 | 1017.1 |
| 20260901070829 | 79 | 179 | 0.0 | 2.0 | 0.00 | 0.00 | 0.00 | 63 | 1017.1 |
| 20260901070324 | 80 | 155 | 0.0 | 3.0 | 0.00 | 0.00 | 0.00 | 63 | 1017.1 |
| 20260901065823 | 80 | 221 | 0.0 | 4.0 | 0.00 | 0.00 | 0.00 | 62 | 1017.1 |
| 20260901065317 | 80 | 208 | 1.0 | 4.0 | 0.00 | 0.00 | 0.00 | 62 | 1017.1 |
| 20260901064831 | 80 | 205 | 1.0 | 4.0 | 0.00 | 0.00 | 0.00 | 62 | 1017.0 |
| 20260901064326 | 79 | 224 | 1.0 | 4.0 | 0.00 | 0.00 | 0.00 | 63 | 1017.0 |
| 20260901063821 | 79 | 195 | 0.0 | 3.0 | 0.00 | 0.00 | 0.00 | 63 | 1017.0 |
| 20260901063336 | 79 | 205 | 0.0 | 2.0 | 0.00 | 0.00 | 0.00 | 63 | 1017.1 |
| 20260901062831 | 79 | 207 | 0.0 | 0.0 | 0.00 | 0.00 | 0.00 | 63 | 1017.1 |
| 20260901062324 | 79 | 193 | 0.0 | 1.0 | 0.00 | 0.00 | 0.00 | 63 | 1017.1 |
| 20260901061839 | 79 | 219 | 0.0 | 2.0 | 0.00 | 0.00 | 0.00 | 62 | 1017.2 |
| 20260901061317 | 79 | 208 | 1.0 | 2.0 | 0.00 | 0.00 | 0.00 | 62 | 1017.2 |
| 20260901060833 | 79 | 207 | 0.0 | 3.0 | 0.00 | 0.00 | 0.00 | 62 | 1017.2 |
| 20260901060328 | 80 | 200 | 0.0 | 3.0 | 0.00 | 0.00 | 0.00 | 62 | 1017.1 |
| 20260901055823 | 80 | 209 | 1.0 | 3.0 | 0.00 | 0.00 | 0.00 | 62 | 1017.2 |
| 20260901055357 | 80 | 210 | 1.0 | 2.0 | 0.00 | 0.00 | 0.00 | 62 | 1017.1 |
| 20260901054851 | 80 | 211 | 0.0 | 3.0 | 0.00 | 0.00 | 0.00 | 62 | 1017.1 |
| 20260901054326 | 80 | 210 | 1.0 | 3.0 | 0.00 | 0.00 | 0.00 | 62 | 1017.0 |
| 20260901053820 | 80 | 222 | 0.0 | 4.0 | 0.00 | 0.00 | 0.00 | 62 | 1017.0 |
| 20260901053320 | 80 | 217 | 2.0 | 4.0 | 0.00 | 0.00 | 0.00 | 62 | 1017.0 |
| 20260901052834 | 80 | 210 | 0.0 | 4.0 | 0.00 | 0.00 | 0.00 | 62 | 1016.9 |
| 20260901052328 | 80 | 214 | 0.0 | 4.0 | 0.00 | 0.00 | 0.00 | 61 | 1016.9 |
| 20260901051823 | 80 | 193 | 0.0 | 3.0 | 0.00 | 0.00 | 0.00 | 61 | 1016.9 |
| 20260901051318 | 81 | 115 | 0.0 | 1.0 | 0.00 | 0.00 | 0.00 | 61 | 1016.9 |
| 20260901050833 | 81 | 161 | 0.0 | 0.0 | 0.00 | 0.00 | 0.00 | 61 | 1016.9 |
| 20260901050328 | 81 | 181 | 0.0 | 0.0 | 0.00 | 0.00 | 0.00 | 61 | 1016.7 |
| 20260901045824 | 81 | 181 | 0.0 | 0.0 | 0.00 | 0.00 | 0.00 | 60 | 1016.6 |
| 20260901045322 | 81 | 203 | 0.0 | 2.0 | 0.00 | 0.00 | 0.00 | 60 | 1016.6 |
| 20260901044817 | 81 | 160 | 0.0 | 2.0 | 0.00 | 0.00 | 0.00 | 60 | 1016.5 |
| 20260901044332 | 82 | 189 | 0.0 | 3.0 | 0.00 | 0.00 | 0.00 | 60 | 1016.6 |
| 20260901043825 | 82 | 122 | 0.0 | 3.0 | 0.00 | 0.00 | 0.00 | 60 | 1016.6 |
| 20260901043339 | 82 | 142 | 1.0 | 3.0 | 0.00 | 0.00 | 0.00 | 60 | 1016.6 |
| 20260901042853 | 82 | 128 | 0.0 | 2.0 | 0.00 | 0.00 | 0.00 | 60 | 1016.6 |
| 20260901041848 | 82 | 207 | 0.0 | 2.0 | 0.00 | 0.00 | 0.00 | 59 | 1016.6 |
| 20260901041342 | 82 | 198 | 0.0 | 3.0 | 0.00 | 0.00 | 0.00 | 60 | 1016.5 |
| 20260901040836 | 82 | 191 | 1.0 | 3.0 | 0.00 | 0.00 | 0.00 | 59 | 1016.6 |
| 20260901040331 | 82 | 154 | 0.0 | 2.0 | 0.00 | 0.00 | 0.00 | 60 | 1016.5 |
| 20260901035828 | 82 | 162 | 0.0 | 3.0 | 0.00 | 0.00 | 0.00 | 60 | 1016.5 |
| 20260901035322 | 82 | 57 | 0.0 | 4.0 | 0.00 | 0.00 | 0.00 | 60 | 1016.5 |
| 20260901034857 | 82 | 182 | 0.0 | 3.0 | 0.00 | 0.00 | 0.00 | 60 | 1016.5 |
| 20260901034329 | 81 | 158 | 0.0 | 2.0 | 0.00 | 0.00 | 0.00 | 61 | 1016.5 |
| 20260901033824 | 81 | 153 | 0.0 | 2.0 | 0.00 | 0.00 | 0.00 | 61 | 1016.4 |
| 20260901033319 | 80 | 252 | 0.0 | 2.0 | 0.00 | 0.00 | 0.00 | 62 | 1016.4 |
| 20260901032834 | 79 | 219 | 0.0 | 2.0 | 0.00 | 0.00 | 0.00 | 64 | 1016.4 |
| 20260901032330 | 78 | 243 | 0.0 | 2.0 | 0.00 | 0.00 | 0.00 | 66 | 1016.4 |
| 20260901031829 | 77 | 79 | 0.0 | 0.0 | 0.00 | 0.00 | 0.00 | 67 | 1016.3 |
| 20260901031323 | 78 | 79 | 0.0 | 0.0 | 0.00 | 0.00 | 0.00 | 69 | 1016.4 |
| 20260901030838 | 78 | 79 | 0.0 | 0.0 | 0.00 | 0.00 | 0.00 | 70 | 1016.3 |
| 20260901030332 | 78 | 79 | 0.0 | 0.0 | 0.00 | 0.00 | 0.00 | 71 | 1016.3 |
| 20260901025827 | 78 | 79 | 0.0 | 0.0 | 0.00 | 0.00 | 0.00 | 69 | 1016.3 |
| 20260901025321 | 78 | 79 | 0.0 | 5.0 | 0.00 | 0.00 | 0.00 | 70 | 1016.2 |
| 20260901024817 | 79 | 79 | 0.0 | 5.0 | 0.00 | 0.00 | 0.00 | 69 | 1016.2 |
| 20260901024331 | 78 | 212 | 0.0 | 0.0 | 0.00 | 0.00 | 0.00 | 70 | 1016.1 |
| 20260901023829 | 78 | 212 | 0.0 | 0.0 | 0.00 | 0.00 | 0.00 | 67 | 1016.0 |
| 20260901023323 | 78 | 212 | 0.0 | 0.0 | 0.00 | 0.00 | 0.00 | 67 | 1016.0 |
| 20260901022838 | 78 | 212 | 0.0 | 0.0 | 0.00 | 0.00 | 0.00 | 66 | 1016.0 |
| 20260901022331 | 78 | 212 | 0.0 | 0.0 | 0.00 | 0.00 | 0.00 | 65 | 1015.8 |
| 20260901021826 | 79 | 212 | 0.0 | 0.0 | 0.00 | 0.00 | 0.00 | 65 | 1015.8 |
| 20260901021319 | 79 | 212 | 0.0 | 0.0 | 0.00 | 0.00 | 0.00 | 64 | 1015.8 |
| 20260901020834 | 79 | 212 | 0.0 | 0.0 | 0.00 | 0.00 | 0.00 | 66 | 1015.7 |
| 20260901020329 | 79 | 213 | 0.0 | 0.0 | 0.00 | 0.00 | 0.00 | 63 | 1015.6 |
| 20260901015823 | 80 | 213 | 0.0 | 0.0 | 0.00 | 0.00 | 0.00 | 63 | 1015.6 |
| 20260901015322 | 80 | 212 | 0.0 | 0.0 | 0.00 | 0.00 | 0.00 | 62 | 1015.5 |
| 20260901014837 | 81 | 213 | 0.0 | 0.0 | 0.00 | 0.00 | 0.00 | 63 | 1015.5 |
| 20260901014331 | 81 | 213 | 0.0 | 0.0 | 0.00 | 0.00 | 0.00 | 62 | 1015.5 |
| 20260901013826 | 81 | 212 | 0.0 | 0.0 | 0.00 | 0.00 | 0.00 | 60 | 1015.4 |
| 20260901013321 | 82 | 212 | 0.0 | 0.0 | 0.00 | 0.00 | 0.00 | 61 | 1015.4 |
| 20260901012856 | 82 | 212 | 0.0 | 0.0 | 0.00 | 0.00 | 0.00 | 58 | 1015.3 |
| 20260901012330 | 82 | 212 | 0.0 | 0.0 | 0.00 | 0.00 | 0.00 | 58 | 1015.3 |
| 20260901011825 | 83 | 212 | 0.0 | 0.0 | 0.00 | 0.00 | 0.00 | 57 | 1015.2 |
| 20260901011324 | 83 | 212 | 0.0 | 0.0 | 0.00 | 0.00 | 0.00 | 57 | 1015.1 |
| 20260901010819 | 84 | 212 | 0.0 | 0.0 | 0.00 | 0.00 | 0.00 | 56 | 1015.1 |
| 20260901010353 | 85 | 212 | 0.0 | 0.0 | 0.00 | 0.00 | 0.00 | 54 | 1015.0 |
| 20260901005827 | 85 | 212 | 0.0 | 0.0 | 0.00 | 0.00 | 0.00 | 53 | 1015.0 |
| 20260901005322 | 86 | 212 | 0.0 | 0.0 | 0.00 | 0.00 | 0.00 | 53 | 1015.0 |
| 20260901004818 | 87 | 213 | 0.0 | 0.0 | 0.00 | 0.00 | 0.00 | 53 | 1015.0 |
| 20260901004333 | 88 | 212 | 0.0 | 0.0 | 0.00 | 0.00 | 0.00 | 50 | 1015.0 |
| 20260901003847 | 89 | 212 | 0.0 | 0.0 | 0.00 | 0.00 | 0.00 | 47 | 1014.9 |
| 20260901003320 | 90 | 212 | 0.0 | 0.0 | 0.00 | 0.00 | 0.00 | 45 | 1014.9 |
| 20260901002819 | 91 | 212 | 0.0 | 0.0 | 0.00 | 0.00 | 0.00 | 44 | 1014.9 |
| 20260901002334 | 92 | 212 | 0.0 | 0.0 | 0.00 | 0.00 | 0.00 | 42 | 1014.9 |
| 20260901001829 | 93 | 212 | 0.0 | 0.0 | 0.00 | 0.00 | 0.00 | 41 | 1014.9 |
| 20260901001324 | 94 | 212 | 0.0 | 1.0 | 0.00 | 0.00 | 0.00 | 40 | 1014.9 |
| 20260901000819 | 94 | 218 | 0.0 | 1.0 | 0.00 | 0.00 | 0.00 | 39 | 1014.8 |
| 20260901000333 | 94 | 219 | 0.0 | 0.0 | 0.00 | 0.00 | 0.00 | 38 | 1014.8 |
| 20260831235826 | 95 | 218 | 0.0 | 0.0 | 0.00 | 0.00 | 0.00 | 38 | 1014.8 |
| 20260831235325 | 95 | 207 | 0.0 | 3.0 | 0.00 | 0.00 | 0.00 | 38 | 1014.8 |
| 20260831234818 | 96 | 156 | 0.0 | 3.0 | 0.00 | 0.00 | 0.00 | 37 | 1014.9 |
| 20260831234332 | 96 | 191 | 0.0 | 0.0 | 0.00 | 0.00 | 0.00 | 37 | 1014.9 |
| 20260831233827 | 96 | 215 | 0.0 | 3.0 | 0.00 | 0.00 | 0.00 | 36 | 1014.8 |
| 20260831233321 | 97 | 225 | 1.0 | 4.0 | 0.00 | 0.00 | 0.00 | 35 | 1014.8 |
| 20260831232835 | 97 | 106 | 0.0 | 4.0 | 0.00 | 0.00 | 0.00 | 36 | 1014.8 |
| 20260831232330 | 97 | 217 | 0.0 | 3.0 | 0.00 | 0.00 | 0.00 | 37 | 1014.8 |
| 20260831231824 | 97 | 181 | 0.0 | 6.0 | 0.00 | 0.00 | 0.00 | 35 | 1014.8 |
| 20260831231339 | 97 | 229 | 1.0 | 3.0 | 0.00 | 0.00 | 0.00 | 36 | 1014.8 |
| 20260831230818 | 97 | 221 | 0.0 | 0.0 | 0.00 | 0.00 | 0.00 | 36 | 1014.8 |
| 20260831230333 | 98 | 148 | 0.0 | 2.0 | 0.00 | 0.00 | 0.00 | 35 | 1014.8 |
| 20260831225827 | 98 | 157 | 0.0 | 5.0 | 0.00 | 0.00 | 0.00 | 35 | 1014.8 |
| 20260831225342 | 98 | 155 | 2.0 | 5.0 | 0.00 | 0.00 | 0.00 | 35 | 1014.8 |
| 20260831224836 | 98 | 56 | 0.0 | 5.0 | 0.00 | 0.00 | 0.00 | 36 | 1014.8 |
| 20260831224332 | 98 | 206 | 2.0 | 5.0 | 0.00 | 0.00 | 0.00 | 35 | 1014.8 |
| 20260831223826 | 99 | 223 | 0.0 | 6.0 | 0.00 | 0.00 | 0.00 | 35 | 1014.9 |
| 20260831223342 | 99 | 148 | 1.0 | 6.0 | 0.00 | 0.00 | 0.00 | 34 | 1014.9 |
| 20260831222819 | 100 | 229 | 3.0 | 6.0 | 0.00 | 0.00 | 0.00 | 33 | 1015.0 |
| 20260831222354 | 100 | 225 | 1.0 | 4.0 | 0.00 | 0.00 | 0.00 | 33 | 1015.0 |
| 20260831221847 | 100 | 199 | 0.0 | 5.0 | 0.00 | 0.00 | 0.00 | 33 | 1015.0 |
| 20260831221322 | 101 | 203 | 1.0 | 5.0 | 0.00 | 0.00 | 0.00 | 33 | 1015.0 |
| 20260831220817 | 101 | 170 | 1.0 | 6.0 | 0.00 | 0.00 | 0.00 | 32 | 1015.0 |
| 20260831220332 | 101 | 212 | 1.0 | 8.0 | 0.00 | 0.00 | 0.00 | 32 | 1015.0 |
| 20260831215827 | 102 | 205 | 2.0 | 8.0 | 0.00 | 0.00 | 0.00 | 33 | 1015.1 |
| 20260831215322 | 102 | 194 | 1.0 | 5.0 | 0.00 | 0.00 | 0.00 | 33 | 1015.1 |
| 20260831214857 | 102 | 163 | 0.0 | 5.0 | 0.00 | 0.00 | 0.00 | 33 | 1015.1 |
| 20260831214330 | 102 | 221 | 2.0 | 6.0 | 0.00 | 0.00 | 0.00 | 32 | 1015.2 |
| 20260831213828 | 103 | 238 | 1.0 | 5.0 | 0.00 | 0.00 | 0.00 | 32 | 1015.2 |
| 20260831213323 | 103 | 170 | 0.0 | 7.0 | 0.00 | 0.00 | 0.00 | 32 | 1015.2 |
| 20260831212838 | 102 | 134 | 1.0 | 7.0 | 0.00 | 0.00 | 0.00 | 31 | 1015.2 |
| 20260831212332 | 102 | 240 | 1.0 | 5.0 | 0.00 | 0.00 | 0.00 | 31 | 1015.1 |
| 20260831211847 | 103 | 154 | 1.0 | 5.0 | 0.00 | 0.00 | 0.00 | 32 | 1015.2 |
| 20260831211321 | 103 | 95 | 0.0 | 8.0 | 0.00 | 0.00 | 0.00 | 31 | 1015.2 |
| 20260831210836 | 102 | 185 | 1.0 | 6.0 | 0.00 | 0.00 | 0.00 | 31 | 1015.3 |
| 20260831210331 | 102 | 226 | 0.0 | 6.0 | 0.00 | 0.00 | 0.00 | 31 | 1015.3 |
| 20260831205830 | 102 | 151 | 0.0 | 5.0 | 0.00 | 0.00 | 0.00 | 32 | 1015.3 |
| 20260831205325 | 102 | 316 | 0.0 | 6.0 | 0.00 | 0.00 | 0.00 | 32 | 1015.4 |
| 20260831204820 | 102 | 283 | 2.0 | 8.0 | 0.00 | 0.00 | 0.00 | 31 | 1015.4 |
| 20260831204354 | 102 | 172 | 5.0 | 8.0 | 0.00 | 0.00 | 0.00 | 32 | 1015.5 |
| 20260831203827 | 102 | 235 | 0.0 | 3.0 | 0.00 | 0.00 | 0.00 | 33 | 1015.5 |
| 20260831203322 | 102 | 91 | 0.0 | 8.0 | 0.00 | 0.00 | 0.00 | 31 | 1015.5 |
| 20260831202817 | 102 | 99 | 3.0 | 9.0 | 0.00 | 0.00 | 0.00 | 33 | 1015.7 |
| 20260831202352 | 102 | 222 | 3.0 | 9.0 | 0.00 | 0.00 | 0.00 | 31 | 1015.7 |
| 20260831201846 | 102 | 207 | 2.0 | 6.0 | 0.00 | 0.00 | 0.00 | 31 | 1015.8 |
| 20260831201324 | 102 | 200 | 1.0 | 6.0 | 0.00 | 0.00 | 0.00 | 33 | 1015.9 |
| 20260831200819 | 101 | 206 | 0.0 | 10.0 | 0.00 | 0.00 | 0.00 | 32 | 1015.9 |
| 20260831200334 | 101 | 219 | 2.0 | 10.0 | 0.00 | 0.00 | 0.00 | 31 | 1016.0 |
| 20260831195828 | 102 | 226 | 0.0 | 7.0 | 0.00 | 0.00 | 0.00 | 31 | 1016.0 |
| 20260831195322 | 102 | 219 | 3.0 | 7.0 | 0.00 | 0.00 | 0.00 | 31 | 1016.1 |
| 20260831194818 | 102 | 158 | 0.0 | 7.0 | 0.00 | 0.00 | 0.00 | 33 | 1016.1 |
| 20260831194332 | 102 | 141 | 1.0 | 9.0 | 0.00 | 0.00 | 0.00 | 32 | 1016.2 |
| 20260831193827 | 101 | 176 | 2.0 | 9.0 | 0.00 | 0.00 | 0.00 | 33 | 1016.2 |
| 20260831193346 | 101 | 151 | 2.0 | 7.0 | 0.00 | 0.00 | 0.00 | 33 | 1016.2 |
| 20260831192819 | 100 | 172 | 1.0 | 7.0 | 0.00 | 0.00 | 0.00 | 32 | 1016.2 |
| 20260831192354 | 100 | 271 | 0.0 | 6.0 | 0.00 | 0.00 | 0.00 | 34 | 1016.3 |
| 20260831191829 | 100 | 53 | 1.0 | 10.0 | 0.00 | 0.00 | 0.00 | 35 | 1016.4 |
| 20260831191324 | 101 | 67 | 3.0 | 10.0 | 0.00 | 0.00 | 0.00 | 34 | 1016.5 |
| 20260831190818 | 101 | 211 | 3.0 | 7.0 | 0.00 | 0.00 | 0.00 | 33 | 1016.5 |
| 20260831190332 | 101 | 168 | 0.0 | 4.0 | 0.00 | 0.00 | 0.00 | 33 | 1016.5 |
| 20260831185847 | 101 | 226 | 1.0 | 5.0 | 0.00 | 0.00 | 0.00 | 33 | 1016.6 |
| 20260831185321 | 101 | 192 | 2.0 | 7.0 | 0.00 | 0.00 | 0.00 | 34 | 1016.7 |
| 20260831184820 | 101 | 172 | 3.0 | 6.0 | 0.00 | 0.00 | 0.00 | 34 | 1016.7 |
| 20260831184334 | 101 | 178 | 0.0 | 7.0 | 0.00 | 0.00 | 0.00 | 33 | 1016.7 |
| 20260831183828 | 101 | 230 | 0.0 | 7.0 | 0.00 | 0.00 | 0.00 | 33 | 1016.7 |
| 20260831183343 | 101 | 177 | 1.0 | 5.0 | 0.00 | 0.00 | 0.00 | 35 | 1016.9 |
| 20260831182817 | 100 | 168 | 0.0 | 4.0 | 0.00 | 0.00 | 0.00 | 36 | 1016.8 |
| 20260831182332 | 100 | 48 | 1.0 | 8.0 | 0.00 | 0.00 | 0.00 | 35 | 1017.0 |
| 20260831181826 | 100 | 217 | 4.0 | 7.0 | 0.00 | 0.00 | 0.00 | 33 | 1017.1 |
| 20260831181340 | 100 | 248 | 0.0 | 6.0 | 0.00 | 0.00 | 0.00 | 37 | 1017.1 |
| 20260831180834 | 100 | 60 | 3.0 | 6.0 | 0.00 | 0.00 | 0.00 | 36 | 1017.3 |
| 20260831180333 | 100 | 207 | 1.0 | 7.0 | 0.00 | 0.00 | 0.00 | 35 | 1017.3 |
| 20260831175828 | 99 | 214 | 4.0 | 7.0 | 0.00 | 0.00 | 0.00 | 35 | 1017.3 |
| 20260831175324 | 100 | 212 | 3.0 | 6.0 | 0.00 | 0.00 | 0.00 | 36 | 1017.3 |
| 20260831174819 | 99 | 232 | 3.0 | 6.0 | 0.00 | 0.00 | 0.00 | 36 | 1017.3 |
| 20260831174333 | 99 | 210 | 0.0 | 6.0 | 0.00 | 0.00 | 0.00 | 38 | 1017.4 |
| 20260831173828 | 99 | 210 | 4.0 | 7.0 | 0.00 | 0.00 | 0.00 | 36 | 1017.4 |
| 20260831173323 | 98 | 224 | 2.0 | 7.0 | 0.00 | 0.00 | 0.00 | 39 | 1017.4 |
| 20260831172857 | 98 | 213 | 1.0 | 7.0 | 0.00 | 0.00 | 0.00 | 39 | 1017.5 |
| 20260831172335 | 98 | 153 | 4.0 | 6.0 | 0.00 | 0.00 | 0.00 | 39 | 1017.6 |
| 20260831171829 | 97 | 203 | 2.0 | 7.0 | 0.00 | 0.00 | 0.00 | 41 | 1017.7 |
| 20260831171323 | 97 | 160 | 2.0 | 8.0 | 0.00 | 0.00 | 0.00 | 41 | 1017.7 |
| 20260831170819 | 97 | 177 | 5.0 | 8.0 | 0.00 | 0.00 | 0.00 | 41 | 1017.8 |
| 20260831170354 | 97 | 195 | 2.0 | 8.0 | 0.00 | 0.00 | 0.00 | 41 | 1017.9 |
| 20260831165828 | 97 | 207 | 5.0 | 8.0 | 0.00 | 0.00 | 0.00 | 40 | 1018.0 |
| 20260831165323 | 97 | 281 | 0.0 | 7.0 | 0.00 | 0.00 | 0.00 | 42 | 1018.1 |
| 20260831164819 | 97 | 207 | 4.0 | 7.0 | 0.00 | 0.00 | 0.00 | 41 | 1018.2 |
| 20260831164338 | 97 | 190 | 3.0 | 4.0 | 0.00 | 0.00 | 0.00 | 43 | 1018.2 |
| 20260831163852 | 96 | 214 | 0.0 | 3.0 | 0.00 | 0.00 | 0.00 | 44 | 1018.2 |
| 20260831163345 | 96 | 309 | 1.0 | 6.0 | 0.00 | 0.00 | 0.00 | 43 | 1018.2 |